TIME,DELAY(SENSOR),PRES,OXYGEN,RAWTEMP,T(OPTODE),TCPHASE,FLUOR,BETA(BETA700),BETA(BETA412),BETA(BETA440),CDOM,C(CSC),ED(ED411.90),ED(ED443.80),ED(ED489.40),ED(ED554.70),LU(LU412.20),LU(LU443.80),LU(LU489.40),LU(LU555.00),COMP,TILTX,TILTY,CHECK
1361486101,5806,849.5700073242188000,178.0382995605468800,473.9655151367187500,8.3350019454956050,38.8845214843750000,75,321,96,80,80,11791,2146961682,2147515648,2147293074,2147508754,2147085723,2146923968,2147712576,2147124306,728,-1,9,43108
1361489697,5805,950.4000244140625000,229.7032928466797000,538.8825073242188000,6.3179211616516110,36.8801689147949200,77,336,98,79,81,11787,2146963547,2147515044,2147301522,2147519789,2147086381,2146917275,2147726125,2147120036,3152,-1,9,34351
1361493297,5806,979.6500244140625000,241.8312072753906200,549.3814697265625000,5.9888548851013180,36.4366912841796900,82,347,99,79,81,11791,2146962733,2147519296,2147302601,2147524269,2147089179,2146918811,2147729133,2147120329,3384,0,9,662
1361496897,5805,983.5499877929688000,248.3298950195312500,553.3693237304688000,5.8636422157287600,36.1830101013183600,80,345,98,78,81,11788,2146963602,2147518262,2147301504,2147524132,2147089792,2146922578,2147729801,2147122761,3404,-1,8,28862
1361500497,5804,984.5000000000000000,251.4252929687500000,557.7656860351562000,5.7254509925842285,36.1113510131835940,83,343,99,80,82,11782,2146961024,2147516937,2147301677,2147525110,2147087332,2146925056,2147730669,2147121819,2895,-1,9,56115
1361504097,5808,989.0200195312500000,252.8406066894531200,559.4514160156250000,5.6724238395690920,36.0733604431152340,84,342,99,79,81,11777,2146964489,2147517924,2147303350,2147523922,2147088694,2146920749,2147724982,2147119670,301,-1,9,281
1361507697,5803,985.4000244140625000,258.9263000488281000,563.2702026367188000,5.5522060394287110,35.8516883850097660,83,342,99,80,81,11779,2146964333,2147518098,2147301650,2147525604,2147089526,2146924004,2147731392,2147118363,3297,0,8,58061
1361511297,5805,993.8499755859375000,258.6498107910156000,563.8909301757812000,5.5326581001281740,35.8766288757324200,82,342,99,79,81,11780,2146963666,2147515172,2147299721,2147524288,2147090432,2146915355,2147733577,2147115977,3519,-1,8,17794
1361514897,5806,994.0800170898438000,259.1022033691406000,564.1867065429688000,5.5233378410339355,35.8602790832519500,83,342,99,79,82,11779,2146962304,2147513097,2147301686,2147525348,2147087396,2146920484,2147728530,2147119030,3595,-1,9,24739
1361518497,5805,994.6900024414062000,259.8221130371094000,564.8005981445312000,5.5039978027343750,35.8375205993652340,82,342,99,80,81,11775,2146961545,2147521225,2147302436,2147525778,2147088310,2146917595,2147732013,2147124169,3419,-1,9,21751
1361522097,5805,995.5399780273438000,261.5888977050781000,564.2282104492188000,5.5220298767089840,35.7442588806152340,82,348,98,80,81,11774,2146962267,2147516955,2147301522,2147525330,2147092397,2146922596,2147730486,2147119213,2979,-1,9,19711
1361525697,5807,1000.2700195312500000,257.7856140136719000,561.1223144531250000,5.6198368072509770,35.8668518066406250,83,345,100,79,81,11772,2146961024,2147517942,2147301778,2147520594,2147089728,2146919881,2147726939,2147119186,436,0,8,7399
1361529297,5802,1003.7700195312500000,257.0940856933594000,560.2589111328125000,5.6470131874084470,35.8839607238769500,82,346,98,79,80,11771,2146962230,2147518701,2147299181,2147524589,2147087195,2146918966,2147726838,2147116434,3084,-1,9,898
1361532897,5805,1002.3099975585938000,256.0100097656250000,559.8959960937500000,5.6584320068359375,35.9287605285644500,81,353,99,80,81,11774,2146963474,2147517421,2147303798,2147527250,2147090221,2146918281,2147729170,2147118153,3432,-1,9,32945
1361536497,5808,997.7299804687500000,256.5097045898437500,561.5355224609375000,5.6068310737609860,35.9348106384277340,84,347,99,80,81,11766,2146960621,2147517028,2147301430,2147522368,2147087332,2146914806,2147732278,2147122633,199,-1,8,28064
1361540097,5806,997.6400146484375000,255.7978973388672000,562.3964843750000000,5.5797209739685060,35.9848289489746100,83,347,98,80,81,11761,2146963218,2147517814,2147300662,2147524480,2147089371,2146921005,2147732434,2147118372,3537,-1,9,31088
1361543697,5806,1002.6300048828125000,257.3599853515625000,562.7316284179688000,5.5691699981689450,35.9159202575683600,82,351,97,79,81,11770,2146962733,2147518208,2147300571,2147526208,2147088393,2146919104,2147728585,2147119177,3441,-1,9,39284
1361547297,5804,999.2800292968750000,257.9379882812500000,563.8309936523438000,5.5345439910888670,35.9089584350585940,82,350,100,79,81,11767,2146961709,2147519204,2147303076,2147525138,2147088676,2146915840,2147729773,2147120246,3153,-1,9,7017
1361550897,5807,1003.2600097656250000,258.3847961425781000,562.2783813476562000,5.5834407806396480,35.8594093322753900,81,352,99,79,80,11757,2146962825,2147512274,2147302838,2147523593,2147088374,2146916470,2147731922,2147118473,3344,-1,8,32643
1361554497,5806,1003.8499755859375000,256.3121032714844000,562.3986206054688000,5.5796551704406740,35.9605903625488300,82,352,98,78,81,11763,2146961152,2147518272,2147302226,2147527414,2147088996,2146919149,2147724854,2147120054,234,-1,8,27744
1361558097,5808,1000.9500122070312000,256.4667968750000000,562.5479125976562000,5.5749530792236330,35.9552383422851560,81,358,99,79,80,11750,2146963785,2147518820,2147304667,2147525942,2147087744,2146913682,2147728996,2147120804,170,-1,8,19645
1361561697,5805,1004.7000122070312000,257.0390930175781000,562.4492187500000000,5.5780620574951170,35.9262199401855500,82,350,98,79,80,11751,2146960859,2147518966,2147302354,2147525238,2147089956,2146917129,2147730230,2147119689,109,-1,8,53676
1361565297,5804,1003.6300048828125000,256.9360046386719000,562.2321166992188000,5.5848979949951170,35.9269981384277340,82,353,99,79,81,11752,2146962889,2147519899,2147301568,2147523776,2147090084,2146917979,2147729362,2147121545,206,-1,8,19129
1361568897,5804,1003.7299804687500000,255.8005065917968800,562.9244995117188000,5.5630950927734375,35.9944610595703100,82,358,99,80,81,11746,2146962715,2147515657,2147302509,2147525915,2147088118,2146921654,2147731766,2147123565,3489,-1,8,40290
1361572497,5804,1005.8499755859375000,259.8655090332031000,563.5452270507812000,5.5435471534729000,35.8124504089355500,81,355,98,81,81,11746,2146965997,2147517193,2147302363,2147526756,2147090212,2146923008,2147728493,2147120576,3350,-1,9,23692
1361576097,5808,1002.7500000000000000,257.9165954589844000,563.2302856445312000,5.5534648895263670,35.8990592956543000,83,357,99,78,79,11742,2146961481,2147518820,2147299529,2147527177,2147090048,2146916873,2147729426,2147118509,3581,-1,9,29127
1361579697,5810,1005.1500244140625000,260.0490112304687500,563.5385742187500000,5.5437550544738770,35.8039207458496100,81,356,99,79,80,11741,2146961499,2147516388,2147301193,2147524425,2147088676,2146921362,2147732461,2147120502,92,-1,9,16977
1361583297,5809,1004.0599975585938000,260.4296875000000000,564.5606079101562000,5.5115590095520020,35.8043098449707000,82,360,99,80,80,11739,2146964352,2147515136,2147300726,2147524004,2147091931,2146926235,2147731108,2147121837,79,-1,8,26307
1361586897,5807,1004.4799804687500000,261.3996887207031000,564.5543212890625000,5.5117568969726560,35.7587699890136700,81,359,99,78,80,11738,2146962093,2147517714,2147300626,2147523337,2147086683,2146918217,2147730688,2147120356,955,-1,9,5575
1361590497,5806,1004.4099731445312000,259.7789001464844000,565.2039184570312000,5.4912891387939450,35.8471488952636700,82,356,99,79,81,11739,2146964507,2147522432,2147300690,2147523931,2147088621,2146923035,2147729444,2147122788,3457,-1,9,18110
1361594097,5808,1000.4500122070312000,260.8409118652344000,565.8400878906250000,5.4712390899658200,35.8086509704589840,81,360,98,80,80,11736,2146962651,2147519350,2147302619,2147524617,2147087698,2146919588,2147728777,2147120548,38,-1,8,18937
1361597697,5805,999.7100219726562000,264.2065124511719000,567.9132080078125000,5.4058837890625000,35.6897583007812500,81,359,98,80,80,11737,2146964973,2147518720,2147304027,2147526025,2147090166,2146923446,2147732224,2147121334,3200,-1,9,32141
1361601297,5805,1001.4500122070312000,262.6622924804687500,566.5582885742188000,5.4486007690429690,35.7365798950195300,83,360,99,80,80,11735,2146964288,2147515309,2147300489,2147524443,2147087515,2146917997,2147727140,2147120475,3433,-1,9,25141
1361604897,5805,998.0300292968750000,264.6643981933594000,567.8414916992188000,5.4081459045410160,35.6676292419433600,82,360,98,79,80,11736,2146961316,2147517540,2147301357,2147526025,2147089526,2146919314,2147731867,2147121353,3369,-1,8,32619
1361608497,5807,1001.2100219726562000,262.6838989257812500,568.2238159179688000,5.3960909843444820,35.7664909362793000,82,362,101,79,81,11733,2146964379,2147517732,2147303780,2147528932,2147087826,2146918710,2147726774,2147121216,84,-1,8,18732
1361612097,5808,993.9299926757812000,264.7572937011719000,568.8563842773438000,5.3761367797851560,35.6821098327636700,82,363,99,81,81,11731,2146964845,2147518354,2147305152,2147524516,2147092160,2146917229,2147729837,2147120576,472,-1,9,7559
1361615697,5804,1000.6599731445312000,265.8391113281250000,569.0375976562500000,5.3704218864440920,35.6349906921386700,82,361,99,79,81,11732,2146963858,2147522459,2147303195,2147525513,2147089453,2146919734,2147732132,2147117869,3112,0,9,40210
1361619297,5805,1002.5399780273438000,267.3009033203125000,569.6104125976562000,5.3523559570312500,35.5788116455078100,81,365,97,80,81,11727,2146964196,2147519332,2147301632,2147526061,2147089115,2146914742,2147729106,2147121334,3350,-1,9,40528
1361622897,5801,1003.9899902343750000,265.3999938964844000,568.6336059570312000,5.3831648826599120,35.6481399536132800,83,366,97,81,80,11729,2146963136,2147514377,2147302070,2147528256,2147089581,2146914916,2147726198,2147120054,3433,-1,9,35925
1361626497,5807,1006.1900024414062000,263.4410095214844000,567.4224243164062000,5.4213600158691410,35.7162513732910160,81,372,99,80,81,11727,2146963355,2147519396,2147301193,2147525019,2147090486,2146912740,2147733330,2147118610,12,0,8,19924
1361630097,5808,1002.5999755859375000,264.9686889648437500,567.7828979492188000,5.4099941253662110,35.6523399353027340,82,365,98,79,81,11726,2146965686,2147518226,2147303835,2147526866,2147092086,2146916416,2147732827,2147117238,18,-1,8,35002
1361630755,5807,1000.0599975585938000,264.5035095214844000,567.8411865234375000,5.4081549644470215,35.6748504638671900,83,363,99,79,80,11752,2146963675,2147518445,2147300736,2147525906,2147090121,2146915072,2147728694,2147116214,143,-1,8,43504
